Year,Month,Day,Hour,Minute,Value (Times are PST for temperature in C)
2006,08,16,00,00,13.10
2006,08,16,00,01,13.10
2006,08,16,00,02,13.10
2006,08,16,00,03,13.10
2006,08,16,00,04,13.00
2006,08,16,00,05,13.00
2006,08,16,00,06,13.00
2006,08,16,00,07,13.00
2006,08,16,00,08,12.90
2006,08,16,00,09,12.90
2006,08,16,00,10,12.90
2006,08,16,00,11,12.80
2006,08,16,00,12,12.80
2006,08,16,00,13,12.80
2006,08,16,00,14,12.80
2006,08,16,00,15,12.80
2006,08,16,00,16,12.80
2006,08,16,00,17,12.80
2006,08,16,00,18,12.80
2006,08,16,00,19,12.80
2006,08,16,00,20,12.80
2006,08,16,00,21,12.80
2006,08,16,00,22,12.80
2006,08,16,00,23,12.80
2006,08,16,00,24,12.80
2006,08,16,00,25,12.80
2006,08,16,00,26,12.80
2006,08,16,00,27,12.80
2006,08,16,00,28,12.80
2006,08,16,00,29,12.80
2006,08,16,00,30,12.80
2006,08,16,00,31,12.80
2006,08,16,00,32,12.80
2006,08,16,00,33,12.80
2006,08,16,00,34,12.80
2006,08,16,00,35,12.80
2006,08,16,00,36,12.80
2006,08,16,00,37,12.80
2006,08,16,00,38,12.80
2006,08,16,00,39,12.80
2006,08,16,00,40,12.80
2006,08,16,00,41,12.80
2006,08,16,00,42,12.80
2006,08,16,00,43,12.80
2006,08,16,00,44,12.80
2006,08,16,00,45,12.80
2006,08,16,00,46,12.80
2006,08,16,00,47,12.80
2006,08,16,00,48,12.80
2006,08,16,00,49,12.80
2006,08,16,00,50,12.80
2006,08,16,00,51,12.80
2006,08,16,00,52,12.70
2006,08,16,00,53,12.70
2006,08,16,00,54,12.70
2006,08,16,00,55,12.60
2006,08,16,00,56,12.60
2006,08,16,00,57,12.60
2006,08,16,00,58,12.50
2006,08,16,00,59,12.50
2006,08,16,01,00,12.40
2006,08,16,01,01,12.40
2006,08,16,01,02,12.40
2006,08,16,01,03,12.30
2006,08,16,01,04,12.30
2006,08,16,01,05,12.30
2006,08,16,01,06,12.30
2006,08,16,01,07,12.30
2006,08,16,01,08,12.30
2006,08,16,01,09,12.20
2006,08,16,01,10,12.20
2006,08,16,01,11,12.20
2006,08,16,01,12,12.20
2006,08,16,01,13,12.10
2006,08,16,01,14,12.10
2006,08,16,01,15,12.10
2006,08,16,01,16,12.10
2006,08,16,01,17,12.10
2006,08,16,01,18,12.10
2006,08,16,01,19,12.10
2006,08,16,01,20,12.10
2006,08,16,01,21,12.10
2006,08,16,01,22,12.10
2006,08,16,01,23,12.10
2006,08,16,01,24,12.10
2006,08,16,01,25,12.10
2006,08,16,01,26,12.10
2006,08,16,01,27,12.10
2006,08,16,01,28,12.10
2006,08,16,01,29,12.10
2006,08,16,01,30,12.10
2006,08,16,01,31,12.10
2006,08,16,01,32,12.10
2006,08,16,01,33,12.10
2006,08,16,01,34,12.10
2006,08,16,01,35,12.10
2006,08,16,01,36,12.10
2006,08,16,01,37,12.10
2006,08,16,01,38,12.00
2006,08,16,01,39,12.00
2006,08,16,01,40,12.00
2006,08,16,01,41,12.00
2006,08,16,01,42,12.00
2006,08,16,01,43,12.00
2006,08,16,01,44,12.00
2006,08,16,01,45,12.00
2006,08,16,01,46,12.00
2006,08,16,01,47,12.00
2006,08,16,01,48,12.00
2006,08,16,01,49,12.00
2006,08,16,01,50,12.00
2006,08,16,01,51,12.00
2006,08,16,01,52,12.00
2006,08,16,01,53,12.00
2006,08,16,01,54,12.00
2006,08,16,01,55,12.00
2006,08,16,01,56,11.90
2006,08,16,01,57,11.90
2006,08,16,01,58,11.90
2006,08,16,01,59,11.90
2006,08,16,02,00,11.80
2006,08,16,02,01,11.80
2006,08,16,02,02,11.80
2006,08,16,02,03,11.80
2006,08,16,02,04,11.80
2006,08,16,02,05,11.80
2006,08,16,02,06,11.80
2006,08,16,02,07,11.80
2006,08,16,02,08,11.80
2006,08,16,02,09,11.80
2006,08,16,02,10,11.70
2006,08,16,02,11,11.70
2006,08,16,02,12,11.70
2006,08,16,02,13,11.70
2006,08,16,02,14,11.70
2006,08,16,02,15,11.70
2006,08,16,02,16,11.70
2006,08,16,02,17,11.70
2006,08,16,02,18,11.70
2006,08,16,02,19,11.70
2006,08,16,02,20,11.70
2006,08,16,02,21,11.70
2006,08,16,02,22,11.70
2006,08,16,02,23,11.70
2006,08,16,02,24,11.70
2006,08,16,02,25,11.70
2006,08,16,02,26,11.70
2006,08,16,02,27,11.70
2006,08,16,02,28,11.70
2006,08,16,02,29,11.60
2006,08,16,02,30,11.60
2006,08,16,02,31,11.60
2006,08,16,02,32,11.70
2006,08,16,02,33,11.70
2006,08,16,02,34,11.70
2006,08,16,02,35,11.70
2006,08,16,02,36,11.70
2006,08,16,02,37,11.70
2006,08,16,02,38,11.70
2006,08,16,02,39,11.70
2006,08,16,02,40,11.70
2006,08,16,02,41,11.70
2006,08,16,02,42,11.70
2006,08,16,02,43,11.80
2006,08,16,02,44,11.80
2006,08,16,02,45,11.80
2006,08,16,02,46,11.80
2006,08,16,02,47,11.80
2006,08,16,02,48,11.80
2006,08,16,02,49,11.80
2006,08,16,02,50,11.80
2006,08,16,02,51,11.80
2006,08,16,02,52,11.80
2006,08,16,02,53,11.80
2006,08,16,02,54,11.80
2006,08,16,02,55,11.80
2006,08,16,02,56,11.80
2006,08,16,02,57,11.80
2006,08,16,02,58,11.80
2006,08,16,02,59,11.80
2006,08,16,03,00,11.80
2006,08,16,03,01,11.80
2006,08,16,03,02,11.80
2006,08,16,03,03,11.80
2006,08,16,03,04,11.80
2006,08,16,03,05,11.80
2006,08,16,03,06,11.80
2006,08,16,03,07,11.90
2006,08,16,03,08,11.90
2006,08,16,03,09,11.90
2006,08,16,03,10,11.90
2006,08,16,03,11,11.90
2006,08,16,03,12,11.90
2006,08,16,03,13,11.90
2006,08,16,03,14,12.00
2006,08,16,03,15,12.00
2006,08,16,03,16,12.00
2006,08,16,03,17,11.90
2006,08,16,03,18,11.90
2006,08,16,03,19,11.80
2006,08,16,03,20,11.80
2006,08,16,03,21,11.70
2006,08,16,03,22,11.70
2006,08,16,03,23,11.70
2006,08,16,03,24,11.60
2006,08,16,03,25,11.60
2006,08,16,03,26,11.60
2006,08,16,03,27,11.60
2006,08,16,03,28,11.60
2006,08,16,03,29,11.60
2006,08,16,03,30,11.60
2006,08,16,03,31,11.60
2006,08,16,03,32,11.60
2006,08,16,03,33,11.60
2006,08,16,03,34,11.60
2006,08,16,03,35,11.60
2006,08,16,03,36,11.60
2006,08,16,03,37,11.60
2006,08,16,03,38,11.60
2006,08,16,03,39,11.60
2006,08,16,03,40,11.40
2006,08,16,03,41,11.40
2006,08,16,03,42,11.40
2006,08,16,03,43,11.40
2006,08,16,03,44,11.40
2006,08,16,03,45,11.40
2006,08,16,03,46,11.40
2006,08,16,03,47,11.40
2006,08,16,03,48,11.40
2006,08,16,03,49,11.40
2006,08,16,03,50,11.40
2006,08,16,03,51,11.40
2006,08,16,03,52,11.40
2006,08,16,03,53,11.40
2006,08,16,03,54,11.40
2006,08,16,03,55,11.40
2006,08,16,03,56,11.40
2006,08,16,03,57,11.40
2006,08,16,03,58,11.40
2006,08,16,03,59,11.40
2006,08,16,04,00,11.40
2006,08,16,04,01,11.40
2006,08,16,04,02,11.40
2006,08,16,04,03,11.40
2006,08,16,04,04,11.40
2006,08,16,04,05,11.40
2006,08,16,04,06,11.40
2006,08,16,04,07,11.40
2006,08,16,04,08,11.40
2006,08,16,04,09,11.40
2006,08,16,04,10,11.40
2006,08,16,04,11,11.40
2006,08,16,04,12,11.50
2006,08,16,04,13,11.60
2006,08,16,04,14,11.60
2006,08,16,04,15,11.60
2006,08,16,04,16,11.60
2006,08,16,04,17,11.60
2006,08,16,04,18,11.60
2006,08,16,04,19,11.60
2006,08,16,04,20,11.60
2006,08,16,04,21,11.60
2006,08,16,04,22,11.70
2006,08,16,04,23,11.70
2006,08,16,04,24,11.60
2006,08,16,04,25,11.60
2006,08,16,04,26,11.60
2006,08,16,04,27,11.40
2006,08,16,04,28,11.40
2006,08,16,04,29,11.30
2006,08,16,04,30,11.20
2006,08,16,04,31,11.20
2006,08,16,04,32,11.20
2006,08,16,04,33,11.20
2006,08,16,04,34,11.20
2006,08,16,04,35,11.20
2006,08,16,04,36,11.20
2006,08,16,04,37,11.30
2006,08,16,04,38,11.30
2006,08,16,04,39,11.40
2006,08,16,04,40,11.40
2006,08,16,04,41,11.40
2006,08,16,04,42,11.40
2006,08,16,04,43,11.30
2006,08,16,04,44,11.30
2006,08,16,04,45,11.30
2006,08,16,04,46,11.30
2006,08,16,04,47,11.30
2006,08,16,04,48,11.30
2006,08,16,04,49,11.40
2006,08,16,04,50,11.40
2006,08,16,04,51,11.50
2006,08,16,04,52,11.60
2006,08,16,04,53,11.60
2006,08,16,04,54,11.60
2006,08,16,04,55,11.60
2006,08,16,04,56,11.60
2006,08,16,04,57,11.60
2006,08,16,04,58,11.60
2006,08,16,04,59,11.60
2006,08,16,05,00,11.60
2006,08,16,05,01,11.60
2006,08,16,05,02,11.60
2006,08,16,05,03,11.60
2006,08,16,05,04,11.60
2006,08,16,05,05,11.60
2006,08,16,05,06,11.60
2006,08,16,05,07,11.60
2006,08,16,05,08,11.60
2006,08,16,05,09,11.60
2006,08,16,05,10,11.60
2006,08,16,05,11,11.60
2006,08,16,05,12,11.60
2006,08,16,05,13,11.60
2006,08,16,05,14,11.60
2006,08,16,05,15,11.60
2006,08,16,05,16,11.60
2006,08,16,05,17,11.60
2006,08,16,05,18,11.60
2006,08,16,05,19,11.60
2006,08,16,05,20,11.60
2006,08,16,05,21,11.50
2006,08,16,05,22,11.40
2006,08,16,05,23,11.40
2006,08,16,05,24,11.40
2006,08,16,05,25,11.40
2006,08,16,05,26,11.40
2006,08,16,05,27,11.40
2006,08,16,05,28,11.40
2006,08,16,05,29,11.40
2006,08,16,05,30,11.40
2006,08,16,05,31,11.40
2006,08,16,05,32,11.40
2006,08,16,05,33,11.40
2006,08,16,05,34,11.40
2006,08,16,05,35,11.30
2006,08,16,05,36,11.30
2006,08,16,05,37,11.30
2006,08,16,05,38,11.30
2006,08,16,05,39,11.30
2006,08,16,05,40,11.30
2006,08,16,05,41,11.30
2006,08,16,05,42,11.20
2006,08,16,05,43,11.20
2006,08,16,05,44,11.20
2006,08,16,05,45,11.20
2006,08,16,05,46,11.20
2006,08,16,05,47,11.20
2006,08,16,05,48,11.20
2006,08,16,05,49,11.20
2006,08,16,05,50,11.20
2006,08,16,05,51,11.10
2006,08,16,05,52,11.10
2006,08,16,05,53,11.10
2006,08,16,05,54,11.10
2006,08,16,05,55,11.00
2006,08,16,05,56,10.90
2006,08,16,05,57,10.90
2006,08,16,05,58,10.90
2006,08,16,05,59,10.90
2006,08,16,06,00,10.90
2006,08,16,06,01,10.90
2006,08,16,06,02,10.80
2006,08,16,06,03,10.80
2006,08,16,06,04,10.80
2006,08,16,06,05,10.80
2006,08,16,06,06,10.80
2006,08,16,06,07,10.70
2006,08,16,06,08,10.70
2006,08,16,06,09,10.70
2006,08,16,06,10,10.70
2006,08,16,06,11,10.70
2006,08,16,06,12,10.70
2006,08,16,06,13,10.70
2006,08,16,06,14,10.70
2006,08,16,06,15,10.70
2006,08,16,06,16,10.70
2006,08,16,06,17,10.70
2006,08,16,06,18,10.80
2006,08,16,06,19,10.80
2006,08,16,06,20,10.80
2006,08,16,06,21,10.80
2006,08,16,06,22,10.90
2006,08,16,06,23,10.90
2006,08,16,06,24,10.90
2006,08,16,06,25,10.90
2006,08,16,06,26,10.90
2006,08,16,06,27,10.90
2006,08,16,06,28,10.90
2006,08,16,06,29,10.80
2006,08,16,06,30,10.80
2006,08,16,06,31,10.80
2006,08,16,06,32,10.80
2006,08,16,06,33,10.80
2006,08,16,06,34,10.80
2006,08,16,06,35,10.70
2006,08,16,06,36,10.70
2006,08,16,06,37,10.70
2006,08,16,06,38,10.70
2006,08,16,06,39,10.70
2006,08,16,06,40,10.70
2006,08,16,06,41,10.60
2006,08,16,06,42,10.60
2006,08,16,06,43,10.60
2006,08,16,06,44,10.60
2006,08,16,06,45,10.60
2006,08,16,06,46,10.60
2006,08,16,06,47,10.60
2006,08,16,06,48,10.60
2006,08,16,06,49,10.60
2006,08,16,06,50,10.60
2006,08,16,06,51,10.50
2006,08,16,06,52,10.40
2006,08,16,06,53,10.40
2006,08,16,06,54,10.40
2006,08,16,06,55,10.40
2006,08,16,06,56,10.40
2006,08,16,06,57,10.30
2006,08,16,06,58,10.30
2006,08,16,06,59,10.40
2006,08,16,07,00,10.40
2006,08,16,07,01,10.40
2006,08,16,07,02,10.40
2006,08,16,07,03,10.40
2006,08,16,07,04,10.40
2006,08,16,07,05,10.40
2006,08,16,07,06,10.40
2006,08,16,07,07,10.50
2006,08,16,07,08,10.60
2006,08,16,07,09,10.60
2006,08,16,07,10,10.60
2006,08,16,07,11,10.60
2006,08,16,07,12,10.60
2006,08,16,07,13,10.70
2006,08,16,07,14,10.70
2006,08,16,07,15,10.70
2006,08,16,07,16,10.70
2006,08,16,07,17,10.80
2006,08,16,07,18,10.80
2006,08,16,07,19,10.80
2006,08,16,07,20,10.90
2006,08,16,07,21,10.90
2006,08,16,07,22,10.90
2006,08,16,07,23,10.90
2006,08,16,07,24,10.90
2006,08,16,07,25,10.90
2006,08,16,07,26,11.00
2006,08,16,07,27,11.10
2006,08,16,07,28,11.10
2006,08,16,07,29,11.10
2006,08,16,07,30,11.10
2006,08,16,07,31,11.10
2006,08,16,07,32,11.20
2006,08,16,07,33,11.20
2006,08,16,07,34,11.20
2006,08,16,07,35,11.30
2006,08,16,07,36,11.30
2006,08,16,07,37,11.30
2006,08,16,07,38,11.40
2006,08,16,07,39,11.40
2006,08,16,07,40,11.40
2006,08,16,07,41,11.50
2006,08,16,07,42,11.60
2006,08,16,07,43,11.60
2006,08,16,07,44,11.60
2006,08,16,07,45,11.60
2006,08,16,07,46,11.70
2006,08,16,07,47,11.70
2006,08,16,07,48,11.80
2006,08,16,07,49,11.80
2006,08,16,07,50,11.80
2006,08,16,07,51,11.90
2006,08,16,07,52,11.90
2006,08,16,07,53,12.00
2006,08,16,07,54,12.00
2006,08,16,07,55,12.10
2006,08,16,07,56,12.10
2006,08,16,07,57,12.20
2006,08,16,07,58,12.20
2006,08,16,07,59,12.20
2006,08,16,08,00,12.30
2006,08,16,08,01,12.30
2006,08,16,08,02,12.30
2006,08,16,08,03,12.30
2006,08,16,08,04,12.40
2006,08,16,08,05,12.40
2006,08,16,08,06,12.50
2006,08,16,08,07,12.50
2006,08,16,08,08,12.50
2006,08,16,08,09,12.60
2006,08,16,08,10,12.70
2006,08,16,08,11,12.70
2006,08,16,08,12,12.70
2006,08,16,08,13,12.80
2006,08,16,08,14,12.80
2006,08,16,08,15,12.80
2006,08,16,08,16,12.90
2006,08,16,08,17,12.90
2006,08,16,08,18,13.00
2006,08,16,08,19,13.00
2006,08,16,08,20,13.10
2006,08,16,08,21,13.10
2006,08,16,08,22,13.20
2006,08,16,08,23,13.20
2006,08,16,08,24,13.30
2006,08,16,08,25,13.30
2006,08,16,08,26,13.30
2006,08,16,08,27,13.30
2006,08,16,08,28,13.30
2006,08,16,08,29,13.30
2006,08,16,08,30,13.40
2006,08,16,08,31,13.40
2006,08,16,08,32,13.50
2006,08,16,08,33,13.50
2006,08,16,08,34,13.50
2006,08,16,08,35,13.60
2006,08,16,08,36,13.60
2006,08,16,08,37,13.70
2006,08,16,08,38,13.70
2006,08,16,08,39,13.70
2006,08,16,08,40,13.80
2006,08,16,08,41,13.80
2006,08,16,08,42,13.90
2006,08,16,08,43,13.90
2006,08,16,08,44,14.00
2006,08,16,08,45,14.00
2006,08,16,08,46,14.10
2006,08,16,08,47,14.20
2006,08,16,08,48,14.20
2006,08,16,08,49,14.20
2006,08,16,08,50,14.30
2006,08,16,08,51,14.40
2006,08,16,08,52,14.50
2006,08,16,08,53,14.50
2006,08,16,08,54,14.60
2006,08,16,08,55,14.70
2006,08,16,08,56,14.80
2006,08,16,08,57,14.90
2006,08,16,08,58,15.00
2006,08,16,08,59,15.00
2006,08,16,09,00,15.10
2006,08,16,09,01,15.10
2006,08,16,09,02,15.20
2006,08,16,09,03,15.30
2006,08,16,09,04,15.30
2006,08,16,09,05,15.30
2006,08,16,09,06,15.30
2006,08,16,09,07,15.30
2006,08,16,09,08,15.30
2006,08,16,09,09,15.30
2006,08,16,09,10,15.30
2006,08,16,09,11,15.30
2006,08,16,09,12,15.30
2006,08,16,09,13,15.30
2006,08,16,09,14,15.40
2006,08,16,09,15,15.40
2006,08,16,09,16,15.40
2006,08,16,09,17,15.40
2006,08,16,09,18,15.50
2006,08,16,09,19,15.50
2006,08,16,09,20,15.60
2006,08,16,09,21,15.70
2006,08,16,09,22,15.80
2006,08,16,09,23,15.90
2006,08,16,09,24,16.00
2006,08,16,09,25,16.10
2006,08,16,09,26,16.10
2006,08,16,09,27,16.10
2006,08,16,09,28,16.20
2006,08,16,09,29,16.20
2006,08,16,09,30,16.30
2006,08,16,09,31,16.30
2006,08,16,09,32,16.30
2006,08,16,09,33,16.40
2006,08,16,09,34,16.50
2006,08,16,09,35,16.60
2006,08,16,09,36,16.60
2006,08,16,09,37,16.70
2006,08,16,09,38,16.70
2006,08,16,09,39,16.70
2006,08,16,09,40,16.70
2006,08,16,09,41,16.70
2006,08,16,09,42,16.90
2006,08,16,09,43,17.00
2006,08,16,09,44,17.10
2006,08,16,09,45,17.20
2006,08,16,09,46,17.20
2006,08,16,09,47,17.20
2006,08,16,09,48,17.30
2006,08,16,09,49,17.30
2006,08,16,09,50,17.40
2006,08,16,09,51,17.50
2006,08,16,09,52,17.70
2006,08,16,09,53,17.80
2006,08,16,09,54,17.80
2006,08,16,09,55,17.90
2006,08,16,09,56,17.90
2006,08,16,09,57,17.90
2006,08,16,09,58,17.90
2006,08,16,09,59,17.80
2006,08,16,10,00,17.70
2006,08,16,10,01,17.80
2006,08,16,10,02,17.70
2006,08,16,10,03,17.70
2006,08,16,10,04,17.70
2006,08,16,10,05,17.60
2006,08,16,10,06,17.70
2006,08,16,10,07,17.70
2006,08,16,10,08,17.70
2006,08,16,10,09,17.60
2006,08,16,10,10,17.50
2006,08,16,10,11,17.40
2006,08,16,10,12,17.30
2006,08,16,10,13,17.30
2006,08,16,10,14,17.10
2006,08,16,10,15,16.90
2006,08,16,10,16,16.80
2006,08,16,10,17,16.80
2006,08,16,10,18,16.70
2006,08,16,10,19,16.70
2006,08,16,10,20,16.70
2006,08,16,10,21,16.70
2006,08,16,10,22,16.80
2006,08,16,10,23,16.80
2006,08,16,10,24,16.90
2006,08,16,10,25,16.90
2006,08,16,10,26,16.90
2006,08,16,10,27,16.90
2006,08,16,10,28,16.80
2006,08,16,10,29,16.80
2006,08,16,10,30,16.90
2006,08,16,10,31,16.90
2006,08,16,10,32,17.00
2006,08,16,10,33,17.00
2006,08,16,10,34,17.10
2006,08,16,10,35,17.10
2006,08,16,10,36,17.20
2006,08,16,10,37,17.30
2006,08,16,10,38,17.30
2006,08,16,10,39,17.30
2006,08,16,10,40,17.20
2006,08,16,10,41,17.20
2006,08,16,10,42,17.30
2006,08,16,10,43,17.30
2006,08,16,10,44,17.30
2006,08,16,10,45,17.30
2006,08,16,10,46,17.30
2006,08,16,10,47,17.30
2006,08,16,10,48,17.30
2006,08,16,10,49,17.30
2006,08,16,10,50,17.30
2006,08,16,10,51,17.40
2006,08,16,10,52,17.40
2006,08,16,10,53,17.40
2006,08,16,10,54,17.50
2006,08,16,10,55,17.60
2006,08,16,10,56,17.70
2006,08,16,10,57,17.80
2006,08,16,10,58,17.80
2006,08,16,10,59,17.80
2006,08,16,11,00,17.80
2006,08,16,11,01,17.90
2006,08,16,11,02,17.90
2006,08,16,11,03,17.90
2006,08,16,11,04,17.90
2006,08,16,11,05,18.00
2006,08,16,11,06,18.10
2006,08,16,11,07,18.20
2006,08,16,11,08,18.20
2006,08,16,11,09,18.20
2006,08,16,11,10,18.20
2006,08,16,11,11,18.20
2006,08,16,11,12,18.20
2006,08,16,11,13,18.20
2006,08,16,11,14,18.20
2006,08,16,11,15,18.10
2006,08,16,11,16,17.90
2006,08,16,11,17,17.90
2006,08,16,11,18,17.90
2006,08,16,11,19,17.90
2006,08,16,11,20,17.90
2006,08,16,11,21,17.90
2006,08,16,11,22,17.90
2006,08,16,11,23,17.90
2006,08,16,11,24,17.90
2006,08,16,11,25,17.90
2006,08,16,11,26,17.90
2006,08,16,11,27,18.00
2006,08,16,11,28,18.10
2006,08,16,11,29,18.10
2006,08,16,11,30,18.20
2006,08,16,11,31,18.20
2006,08,16,11,32,18.20
2006,08,16,11,33,18.30
2006,08,16,11,34,18.30
2006,08,16,11,35,18.30
2006,08,16,11,36,18.30
2006,08,16,11,37,18.20
2006,08,16,11,38,18.20
2006,08,16,11,39,18.10
2006,08,16,11,40,17.90
2006,08,16,11,41,17.90
2006,08,16,11,42,17.80
2006,08,16,11,43,17.70
2006,08,16,11,44,17.80
2006,08,16,11,45,17.80
2006,08,16,11,46,17.70
2006,08,16,11,47,17.70
2006,08,16,11,48,17.70
2006,08,16,11,49,17.50
2006,08,16,11,50,17.50
2006,08,16,11,51,17.50
2006,08,16,11,52,17.70
2006,08,16,11,53,17.70
2006,08,16,11,54,17.60
2006,08,16,11,55,17.60
2006,08,16,11,56,17.50
2006,08,16,11,57,17.50
2006,08,16,11,58,17.50
2006,08,16,11,59,17.50
2006,08,16,12,00,17.40
2006,08,16,12,01,17.30
2006,08,16,12,02,17.30
2006,08,16,12,03,17.30
2006,08,16,12,04,17.30
2006,08,16,12,05,17.30
2006,08,16,12,06,17.30
2006,08,16,12,07,17.30
2006,08,16,12,08,17.30
2006,08,16,12,09,17.30
2006,08,16,12,10,17.30
2006,08,16,12,11,17.30
2006,08,16,12,12,17.30
2006,08,16,12,13,17.40
2006,08,16,12,14,17.50
2006,08,16,12,15,17.50
2006,08,16,12,16,17.60
2006,08,16,12,17,17.60
2006,08,16,12,18,17.70
2006,08,16,12,19,17.70
2006,08,16,12,20,17.70
2006,08,16,12,21,17.70
2006,08,16,12,22,17.70
2006,08,16,12,23,17.70
2006,08,16,12,24,17.70
2006,08,16,12,25,17.80
2006,08,16,12,26,17.90
2006,08,16,12,27,17.90
2006,08,16,12,28,17.90
2006,08,16,12,29,17.90
2006,08,16,12,30,17.90
2006,08,16,12,31,17.80
2006,08,16,12,32,17.90
2006,08,16,12,33,17.90
2006,08,16,12,34,17.90
2006,08,16,12,35,17.90
2006,08,16,12,36,17.90
2006,08,16,12,37,17.90
2006,08,16,12,38,17.90
2006,08,16,12,39,17.90
2006,08,16,12,40,17.90
2006,08,16,12,41,17.80
2006,08,16,12,42,17.80
2006,08,16,12,43,17.90
2006,08,16,12,44,17.90
2006,08,16,12,45,17.90
2006,08,16,12,46,17.80
2006,08,16,12,47,17.90
2006,08,16,12,48,17.90
2006,08,16,12,49,17.90
2006,08,16,12,50,17.90
2006,08,16,12,51,17.90
2006,08,16,12,52,17.90
2006,08,16,12,53,17.90
2006,08,16,12,54,18.00
2006,08,16,12,55,18.10
2006,08,16,12,56,18.10
2006,08,16,12,57,18.10
2006,08,16,12,58,18.10
2006,08,16,12,59,18.20
2006,08,16,13,00,18.20
2006,08,16,13,01,18.20
2006,08,16,13,02,18.20
2006,08,16,13,03,18.20
2006,08,16,13,04,18.20
2006,08,16,13,05,18.20
2006,08,16,13,06,18.20
2006,08,16,13,07,18.20
2006,08,16,13,08,18.20
2006,08,16,13,09,18.10
2006,08,16,13,10,18.00
2006,08,16,13,11,17.90
2006,08,16,13,12,17.90
2006,08,16,13,13,17.90
2006,08,16,13,14,17.90
2006,08,16,13,15,17.90
2006,08,16,13,16,17.90
2006,08,16,13,17,17.90
2006,08,16,13,18,17.80
2006,08,16,13,19,17.80
2006,08,16,13,20,17.80
2006,08,16,13,21,17.90
2006,08,16,13,22,18.00
2006,08,16,13,23,18.10
2006,08,16,13,24,18.20
2006,08,16,13,25,18.30
2006,08,16,13,26,18.30
2006,08,16,13,27,18.30
2006,08,16,13,28,18.50
2006,08,16,13,29,18.50
2006,08,16,13,30,18.50
2006,08,16,13,31,18.50
2006,08,16,13,32,18.50
2006,08,16,13,33,18.50
2006,08,16,13,34,18.50
2006,08,16,13,35,18.50
2006,08,16,13,36,18.60
2006,08,16,13,37,18.50
2006,08,16,13,38,18.50
2006,08,16,13,39,18.40
2006,08,16,13,40,18.30
2006,08,16,13,41,18.30
2006,08,16,13,42,18.20
2006,08,16,13,43,18.20
2006,08,16,13,44,18.20
2006,08,16,13,45,18.20
2006,08,16,13,46,18.20
2006,08,16,13,47,18.20
2006,08,16,13,48,18.20
2006,08,16,13,49,18.30
2006,08,16,13,50,18.40
2006,08,16,13,51,18.50
2006,08,16,13,52,18.50
2006,08,16,13,53,18.40
2006,08,16,13,54,18.40
2006,08,16,13,55,18.30
2006,08,16,13,56,18.30
2006,08,16,13,57,18.40
2006,08,16,13,58,18.50
2006,08,16,13,59,18.50
2006,08,16,14,00,18.50
2006,08,16,14,01,18.40
2006,08,16,14,02,18.40
2006,08,16,14,03,18.50
2006,08,16,14,04,18.50
2006,08,16,14,05,18.50
2006,08,16,14,06,18.60
2006,08,16,14,07,18.50
2006,08,16,14,08,18.50
2006,08,16,14,09,18.60
2006,08,16,14,10,18.60
2006,08,16,14,11,18.50
2006,08,16,14,12,18.50
2006,08,16,14,13,18.60
2006,08,16,14,14,18.60
2006,08,16,14,15,18.50
2006,08,16,14,16,18.50
2006,08,16,14,17,18.50
2006,08,16,14,18,18.50
2006,08,16,14,19,18.50
2006,08,16,14,20,18.50
2006,08,16,14,21,18.50
2006,08,16,14,22,18.50
2006,08,16,14,23,18.60
2006,08,16,14,24,18.60
2006,08,16,14,25,18.60
2006,08,16,14,26,18.60
2006,08,16,14,27,18.60
2006,08,16,14,28,18.70
2006,08,16,14,29,18.70
2006,08,16,14,30,18.80
2006,08,16,14,31,18.90
2006,08,16,14,32,18.90
2006,08,16,14,33,18.90
2006,08,16,14,34,19.10
2006,08,16,14,35,19.00
2006,08,16,14,36,18.90
2006,08,16,14,37,18.90
2006,08,16,14,38,18.90
2006,08,16,14,39,19.00
2006,08,16,14,40,19.10
2006,08,16,14,41,19.00
2006,08,16,14,42,18.90
2006,08,16,14,43,18.80
2006,08,16,14,44,18.80
2006,08,16,14,45,18.70
2006,08,16,14,46,18.60
2006,08,16,14,47,18.50
2006,08,16,14,48,18.50
2006,08,16,14,49,18.60
2006,08,16,14,50,18.80
2006,08,16,14,51,18.80
2006,08,16,14,52,18.80
2006,08,16,14,53,18.80
2006,08,16,14,54,18.80
2006,08,16,14,55,18.70
2006,08,16,14,56,18.60
2006,08,16,14,57,18.60
2006,08,16,14,58,18.50
2006,08,16,14,59,18.50
2006,08,16,15,00,18.60
2006,08,16,15,01,18.60
2006,08,16,15,02,18.60
2006,08,16,15,03,18.70
2006,08,16,15,04,18.60
2006,08,16,15,05,18.60
2006,08,16,15,06,18.50
2006,08,16,15,07,18.50
2006,08,16,15,08,18.50
2006,08,16,15,09,18.50
2006,08,16,15,10,18.50
2006,08,16,15,11,18.50
2006,08,16,15,12,18.50
2006,08,16,15,13,18.60
2006,08,16,15,14,18.60
2006,08,16,15,15,18.70
2006,08,16,15,16,18.60
2006,08,16,15,17,18.60
2006,08,16,15,18,18.50
2006,08,16,15,19,18.50
2006,08,16,15,20,18.50
2006,08,16,15,21,18.60
2006,08,16,15,22,18.60
2006,08,16,15,23,18.50
2006,08,16,15,24,18.50
2006,08,16,15,25,18.50
2006,08,16,15,26,18.50
2006,08,16,15,27,18.60
2006,08,16,15,28,18.60
2006,08,16,15,29,18.60
2006,08,16,15,30,18.60
2006,08,16,15,31,18.60
2006,08,16,15,32,18.50
2006,08,16,15,33,18.40
2006,08,16,15,34,18.40
2006,08,16,15,35,18.30
2006,08,16,15,36,18.20
2006,08,16,15,37,18.30
2006,08,16,15,38,18.30
2006,08,16,15,39,18.40
2006,08,16,15,40,18.40
2006,08,16,15,41,18.30
2006,08,16,15,42,18.30
2006,08,16,15,43,18.30
2006,08,16,15,44,18.40
2006,08,16,15,45,18.40
2006,08,16,15,46,18.50
2006,08,16,15,47,18.40
2006,08,16,15,48,18.40
2006,08,16,15,49,18.40
2006,08,16,15,50,18.40
2006,08,16,15,51,18.30
2006,08,16,15,52,18.30
2006,08,16,15,53,18.20
2006,08,16,15,54,18.20
2006,08,16,15,55,18.20
2006,08,16,15,56,18.20
2006,08,16,15,57,18.10
2006,08,16,15,58,18.00
2006,08,16,15,59,17.90
2006,08,16,16,00,17.90
2006,08,16,16,01,17.80
2006,08,16,16,02,17.90
2006,08,16,16,03,17.90
2006,08,16,16,04,17.90
2006,08,16,16,05,17.90
2006,08,16,16,06,18.10
2006,08,16,16,07,18.10
2006,08,16,16,08,18.10
2006,08,16,16,09,18.20
2006,08,16,16,10,18.10
2006,08,16,16,11,18.10
2006,08,16,16,12,18.10
2006,08,16,16,13,18.10
2006,08,16,16,14,18.10
2006,08,16,16,15,18.20
2006,08,16,16,16,18.20
2006,08,16,16,17,18.20
2006,08,16,16,18,18.20
2006,08,16,16,19,18.20
2006,08,16,16,20,18.20
2006,08,16,16,21,18.20
2006,08,16,16,22,18.20
2006,08,16,16,23,18.20
2006,08,16,16,24,18.30
2006,08,16,16,25,18.30
2006,08,16,16,26,18.30
2006,08,16,16,27,18.40
2006,08,16,16,28,18.40
2006,08,16,16,29,18.40
2006,08,16,16,30,18.40
2006,08,16,16,31,18.40
2006,08,16,16,32,18.40
2006,08,16,16,33,18.40
2006,08,16,16,34,18.30
2006,08,16,16,35,18.30
2006,08,16,16,36,18.30
2006,08,16,16,37,18.30
2006,08,16,16,38,18.30
2006,08,16,16,39,18.40
2006,08,16,16,40,18.50
2006,08,16,16,41,18.50
2006,08,16,16,42,18.50
2006,08,16,16,43,18.60
2006,08,16,16,44,18.50
2006,08,16,16,45,18.40
2006,08,16,16,46,18.40
2006,08,16,16,47,18.30
2006,08,16,16,48,18.30
2006,08,16,16,49,18.30
2006,08,16,16,50,18.30
2006,08,16,16,51,18.20
2006,08,16,16,52,18.20
2006,08,16,16,53,18.20
2006,08,16,16,54,18.20
2006,08,16,16,55,18.20
2006,08,16,16,56,18.20
2006,08,16,16,57,18.30
2006,08,16,16,58,18.40
2006,08,16,16,59,18.40
2006,08,16,17,00,18.40
2006,08,16,17,01,18.50
2006,08,16,17,02,18.40
2006,08,16,17,03,18.40
2006,08,16,17,04,18.30
2006,08,16,17,05,18.40
2006,08,16,17,06,18.40
2006,08,16,17,07,18.50
2006,08,16,17,08,18.60
2006,08,16,17,09,18.60
2006,08,16,17,10,18.50
2006,08,16,17,11,18.50
2006,08,16,17,12,18.40
2006,08,16,17,13,18.40
2006,08,16,17,14,18.40
2006,08,16,17,15,18.30
2006,08,16,17,16,18.30
2006,08,16,17,17,18.30
2006,08,16,17,18,18.30
2006,08,16,17,19,18.20